Location: Willingham
(52.3167°N, 0.0667°E)
Time: 20:36:53
(UTC+00:00)

Cosmos 2366 rocket - Pass Details

Date: 19 May 2025
Orbit: 954 x 996 km, 82.9° (Epoch: 21 June)

Event Time Altitude Azimuth Distance (km) Brightness Sun altitude
Rises 21:06:10 0° 350° (N) 3,730 8.2 -8.8°
Reaches altitude 10° 21:08:44 10° 353° (N) 2,776 7.4 -9.1°
Maximum altitude 21:15:07 71° 77° (ENE) 1,051 4.1 -9.7°
Enters shadow 21:21:12 11° 162° (SSE) 2,667 5.7 -10.2°
